www.pogodaiklimat.ru

Погода и климат >> Архив погоды >> Индонезия >> Kupang


ПОГОДА в Kupang

  • Прогноз погоды в Kupang
  • Монитор погоды в Kupang
  • Климат города

АРХИВ ПОГОДЫ в Kupang

Время (UTC), дата Ветер
(напр.,м/с)
 
Видим.   Явления Облачность Т
(С)
Тd
(С)
f
(%)
Тe
(С)
Тes
(С)
Комфортность P
(гПа)
Po
(гПа)
Тmin
(С)
Tmax
(С)
R
(мм)
R24
(мм)
S
(см)
09 10.12 С 3 10 км 9/5 500 м
[Cu med, cong As trans Cs]
+30.6 +27.5 84 +49 +50 опасность
перегрева
1006.8 994.7
12 10.12 ЮЗ 2 8000 м 6/3 540 м
[Cu hum Cs]
+29.1 +27.0 88 +46 +46 опасность
перегрева
1009.0 996.9 +32.6
15 10.12 З 1 8000 м 4/1 540 м
[Cu hum Ci sp]
+27.8 +26.6 93 +43 +43 опасность
перегрева
1009.6 997.4
18 10.12 ЮЗ 1 8000 м 1/1 540 м
[Cu hum Ci fib]
+27.0 +26.2 95 +41 +41 опасность
перегрева
1007.6 995.4
21 10.12 З 2 8000 м 4/4 500 м
[Cu hum Ci fib]
+26.3 +25.6 96 +39 +39 очень
душно
1008.3 996.2
00 11.12 ЮЗ 3 10 км 4/4 500 м
[Cu hum Ci fib]
+29.9 +26.3 81 +46 +49 опасность
перегрева
1009.9 997.7 +26.0
03 11.12 СЗ 4 10 км 4/3 500 м
[Cu hum Ci fib]
+31.9 +27.7 79 +52 +62 опасность
перегрева
1009.2 997.2
06 11.12 З 4 10 км 4/3 500 м
[Cu med, cong As trans Ci fib]
+32.4 +26.9 73 +50 +57 опасность
перегрева
1007.5 995.3
09 11.12 З 4 10 км 8/5 500 м
[Cu Sc Ac trans Ci ing]
+31.0 +27.5 82 +50 +50 опасность
перегрева
1007.8 995.6
12 11.12 З 2 8000 м 5/3 500 м
[Cu med, cong Ac trans Cs]
+29.2 +27.1 88 +46 +46 опасность
перегрева
1009.8 997.6 +32.6
15 11.12 штиль 0 8000 м 6/4 500 м
[Cu hum As trans Ci fib]
+28.2 +26.3 89 +43 +43 опасность
перегрева
1010.1 998.0
18 11.12 штиль 0 8000 м 4/3 500 м
[Cu hum As trans Ci fib]
+27.4 +26.6 95 +42 +42 опасность
перегрева
1008.7 996.5
21 11.12 З 1 8000 м 4/3 500 м
[Cu hum As trans Ci fib]
+26.2 +25.1 94 +38 +38 очень
душно
1008.8 996.6
00 12.12 З 3 10 км 8/4 540 м
[Cu med, cong Cs]
+29.4 +27.8 91 +48 +52 опасность
перегрева
1009.5 997.3 +26.0
03 12.12 СЗ 4 10 км 5/5 540 м
[Cu med, cong Ci]
+31.4 +27.2 78 +49 +56 опасность
перегрева
1008.2 996.0
06 12.12 СЗ 5 10 км 4/4 540 м
[Cu hum Ci fib]
+32.0 +27.4 77 +51 +56 опасность
перегрева
1007.2 995.0
09 12.12 СЗ 4 10 км 5/5 500 м
[Cu hum Ci fib]
+30.3 +27.4 85 +49 +49 опасность
перегрева
1007.6 995.5
12 12.12 З 2 8000 м 5/3 500 м
[Cu Sc As trans Cs]
+28.8 +26.9 89 +45 +45 опасность
перегрева
1009.0 996.9 +32.0
15 12.12 З 2 8000 м 5/4 500 м
[Cu Sc As trans Cs]
+28.2 +26.9 93 +44 +44 опасность
перегрева
1010.3 998.1
18 12.12 З 2 8000 м 5/1 500 м
[Cu Sc Cs]
+27.6 +26.5 94 +42 +42 опасность
перегрева
1008.4 996.2
21 12.12 З 3 8000 м 5/3 500 м
[Cu Sc Cs]
+26.7 +25.8 95 +40 +40 очень
душно
1008.3 996.1
00 13.12 СЗ 4 10 км 6/5 500 м
[Cu Sc Cs]
+29.6 +27.0 86 +47 +49 опасность
перегрева
1010.2 998.0 +26.4
03 13.12 СЗ 5 10 км 5/5 540 м
[Cu med, cong Ci fib]
+31.8 +27.9 80 +52 +58 опасность
перегрева
1010.2 998.0
06 13.12 СЗ 5 10 км 6/6 450 м
[Cb cap As trans Ci fib]
+32.8 +27.3 73 +52 +55 опасность
перегрева
1008.2 996.1
09 13.12 ЮЗ 3 10 км {дождь} 8/5 480 м
[Cu med, cong As trans Cs]
+30.2 +27.3 85 +48 +49 опасность
перегрева
1008.6 996.4 0.0
12 13.12 З 2 8000 м {дождь} 8/4 480 м
[Cu med, cong As trans Cs]
+28.8 +26.4 87 +44 +44 опасность
перегрева
1009.2 997.1 +33.0 0.0
15 13.12 З 3 8000 м 6/3 540 м
[Cu hum Cs]
+28.2 +26.7 92 +44 +44 опасность
перегрева
1008.8 996.7
18 13.12 З 3 8000 м зарница 4/4 480 м
[Cb cap Ci fib]
+27.8 +26.5 93 +43 +43 опасность
перегрева
1008.1 995.9
21 13.12 З 2 8000 м 5/5 480 м
[Cb cap]
+27.3 +25.8 92 +41 +41 опасность
перегрева
1008.9 996.7
00 14.12 З 3 10 км 8/8 480 м
[Cb cap As op Ci sp]
+29.7 +27.2 86 +47 +48 опасность
перегрева
1010.0 997.8 +27.3 0.0
03 14.12 СЗ 5 10 км 6/4 480 м
[Cu med, cong Ci fib]
+32.0 +27.4 77 +51 +58 опасность
перегрева
1009.4 997.2
06 14.12 З 4 8000 м слабый дождь 10/8 450 м
[Cb cap As trans Ci fib]
+30.0 +27.1 84 +47 +48 опасность
перегрева
1008.1 995.9 0.0
09 14.12 З 3 10 км {дождь} 10/6 480 м
[Cu med, cong As op Ci fib]
+28.2 +26.6 91 +44 +44 опасность
перегрева
1008.2 996.0 0.0
12 14.12 СЗ 3 8000 м {дождь} 9/6 450 м
[Cu med, cong As op Ci fib]
+27.5 +26.2 93 +42 +42 опасность
перегрева
1008.9 996.7 +32.0 0.0
15 14.12 З 2 8000 м 9/6 480 м
[Cu med, cong As op Ci fib]
+27.8 +26.7 94 +43 +43 опасность
перегрева
1009.2 997.0
18 14.12 З 4 8000 м 9/5 480 м
[Cu med, cong As op Ci fib]
+28.2 +27.0 93 +44 +44 опасность
перегрева
1007.7 995.6
21 14.12 З 3 8000 м в посл. час дождь {гроза} 9/8 450 м
[Cb cap As op Ci fib]
+26.8 +25.2 91 +39 +39 очень
душно
1008.8 996.6 0.0
00 15.12 З 3 8000 м в посл. час гроза {дождь} 8/5 300 м
[Cb cap As op Ci fib]
+28.7 +27.0 91 +45 +47 опасность
перегрева
1010.1 997.9 +26.8 0.0
03 15.12 З 4 10 км 8/4 480 м
[Cu med, cong As op Ci fib]
+31.4 +27.5 80 +50 +56 опасность
перегрева
1008.8 996.6
06 15.12 З 6 10 км 8/5 450 м
[Cu med, cong As trans Ci fib]
+32.0 +27.3 76 +50 +53 опасность
перегрева
1007.2 995.0
09 15.12 З 5 10 км 8/5 500 м
[Cu med, cong As trans Cs]
+30.8 +27.1 81 +49 +49 опасность
перегрева
1007.2 995.0
12 15.12 З 2 8000 м 8/5 500 м
[Cu med, cong As trans Cs]
+28.4 +26.8 91 +44 +44 опасность
перегрева
1009.1 997.0 +32.2
15 15.12 З 4 8000 м 8/5 500 м
[Cu med, cong As trans Ci fib]
+27.6 +26.3 93 +42 +42 опасность
перегрева
1010.2 998.0
18 15.12 З 1 8000 м 8/5 500 м
[Cu med, cong As op Ci fib]
+26.8 +25.5 93 +39 +39 очень
душно
1008.8 996.7
21 15.12 ЮВ 1 8000 м 8/5 500 м
[Cu med, cong As op Ci fib]
+25.6 +24.5 94 +36 +36 очень
душно
1009.7 997.6
00 16.12 З 4 10 км 6/4 540 м
[Cu med, cong As op Cs]
+29.4 +25.6 80 +43 +46 опасность
перегрева
1011.5 999.3 +25.2
03 16.12 З 4 10 км 8/5 540 м
[Cu med, cong Ac trans Ci fib]
+31.4 +25.8 72 +46 +51 опасность
перегрева
1010.6 998.4
06 16.12 З 5 10 км 9/6 500 м
[Cu Sc Ac trans Cs]
+31.9 +25.3 68 +46 +48 опасность
перегрева
1008.8 996.7
09 16.12 ЮЗ 5 10 км 9/4 500 м
[Cu Sc Ac As Cs]
+30.1 +25.1 75 +44 +44 опасность
перегрева
1009.5 997.3
12 16.12 З 3 8000 м 8/4 540 м
[Cu Sc Ac trans Cs]
+28.2 +25.2 84 +41 +41 опасность
перегрева
1011.1 998.9 +33.4
15 16.12 ЮЗ 1 8000 м 8/5 500 м
[Cu Sc Ac trans Cs]
+27.8 +25.4 87 +41 +41 опасность
перегрева
1010.8 998.6
18 16.12 ЮЗ 1 8000 м слабый дождь 8/6 500 м
[Cu Sc Ac trans Ci fib]
+26.7 +24.9 90 +38 +38 очень
душно
1009.0 996.9
21 16.12 ЮВ 1 8000 м {дождь} 8/3 500 м
[Cu Sc Ac cast Cs]
+25.9 +24.9 94 +37 +37 очень
душно
1009.4 997.2 0.0
00 17.12 З 3 10 км {дождь} 8/6 480 м
[Cu med, cong As trans Ci fib]
+27.6 +25.2 87 +40 +42 очень
душно
1011.2 999.1 +25.6 0.0
03 17.12 ЮЗ 6 10 км 8/6 500 м
[Cu med, cong As trans Ci fib]
+31.4 +26.4 75 +48 +51 опасность
перегрева
1010.7 998.5
06 17.12 З 5 10 км 8/6 500 м
[Cu med, cong As trans Cs]
+31.6 +26.0 72 +47 +49 опасность
перегрева
1008.9 996.7

 

Местоположение метеостанции Kupang (Индонезия): широта -10.16 долгота 123.66 высота над уровнем моря 108 м.

В архиве по умолчанию представлена погода в Kupang за последнюю неделю. Архивные данные за месяц целиком и за предыдущие месяцы, начиная с января 2011 года, Вы можете получить, выбрав интересующий диапазон дат из раскрывающегося списка и нажав кнопку "Ввод!".


*Определитесь, кто Вы:
робот инопланетянин человек

Внимание! Время в таблицах - всемирное. Для получения местного времени необходимо прибавить поправку, которая в Kupang равна 8 ч.

Смотрите также архив погоды в соседних городах и на ближайших метеорологических станциях:

Погода в Rote (Индонезия) (90 км)
Погода в Sabu (Индонезия) (204 км)
Погода в Larantuka (Индонезия) (223 км)
Погода в Maumere (Индонезия) (230 км)
Погода в Alor (Индонезия) (237 км)
Погода в Umbu Mehang Kunda Airport (Индонезия) (369 км)
Погода в Ruteng (Индонезия) (391 км)
Погода в Browse Island (Западная Австралия, Австралия) (440 км)
Погода в Troughton Island (Западная Австралия, Австралия) (483 км)
Погода в Truscott (Западная Австралия, Австралия) (527 км)

Пояснения к столбцам:

Ветер - указаны скорость ветра в м/с - средняя за 10 мин, порывы в срок и между сроками (в фигурных скобках) и направление, откуда дует ветер: С - северный, СВ - северо-восточный, В - восточный, ЮВ - юго-восточный, Ю - южный, ЮЗ - юго-западный, З - западный, СЗ - северо-западный.
Видимость - горизонтальная дальность видимости в метрах или километрах. При видимости от 1 до 10 км при отсутствии осадков обычно наблюдается дымка, при ухудшении видимости до 1 км и менее - туман. В сухую погоду видимость может ухудшаться дымом, пылью или мглою.
Явления - указаны атмосферные явления, наблюдавшиеся в срок или в последний час перед сроком; фигурными скобками обозначены явления, наблюдавшиеся между сроками (за 1-3 часа до срока); квадратными скобками обозначены град или гололедные отложения с указанием их диаметра в мм.
Облачность - указаны через наклонную черту общая и нижняя облачность в баллах и высота нижней границы облаков в метрах; квадратными скобками обозначены формы облаков: Ci - перистые, Cs - перисто-слоистые, Cc - перисто-кучевые, Ac - высококучевые, As - высокослоистые, Sc - слоисто-кучевые, Ns - слоисто-дождевые, Cu - кучевые, Cb - кучево-дождевые. Подробнее классификацию облаков см. в Атласе облаков (PDF).
T - Температура воздуха - температура, измеренная на высоте 2 м над землей.
Td - Температура точки росы - температура, при понижении до которой содержащийся в воздухе водяной пар достигнет насыщения.
f - Относительная влажность воздуха - влажноcть воздуха, измеренная на высоте 2 м над землей.
Te - Эффективная температура - температура, которую ощущает одетый по сезону человек в тени. Характеристика душности погоды. При расчете учитывается влияние влажности воздуха и скорости ветра на теплоощущения человека.
Tes - Эффективная температура на солнце - температура, которую ощущает человек, с поправкой на солнечный нагрев. Характеристика знойности погоды. Зависит от высоты солнца над горизонтом, облачности и скорости ветра. Ночью, в пасмурную погоду, а также при ветре 12 м/с и более поправка равна нулю.
P - Атмосферное давление - приведенное к уровню моря атмосферное давление.
Po - Атмосферное давление - измеренное на уровне метеостанции атмосферное давление.
Tmin - Минимальная температура - минимум температуры воздуха на высоте 2 м над землей.
Tmax - Максимальная температура - максимум температуры воздуха на высоте 2 м над землей.
R - Количество осадков - Количество выпавших осадков за период времени, мм. При наведении курсора мыши на число - период времени, за который выпало указанное количество осадков.
R24 - Количество осадков - Количество выпавших осадков за 24 часа, мм.
S - Снежный покров - Высота снежного покрова, см. При наведении курсора мыши на число - состояние снежного покрова и степень покрытия местности в баллах.